sat.trackr.live / text

‹ back to catalog

STARLINK-1922

NORAD 46753 · 2020-074Q

PAYLOAD ACTIVE UNKNOWN

§ Identity

Operator
Country
US
Launch date
2020-10-24
Launch site
AFETR
Launch vehicle
Mass (kg)
RCS (m²)

Purposes: comms

External: N2YO · Heavens-Above · Gunter

§ Orbital elements

Epoch: 2026-06-28T04:52:37.369920Z

Period
87.42 min
Inclination
53.0194°
Eccentricity
0.0009282
Mean motion
16.47266339 rev/d
Perigee alt
140.5 km
Apogee alt
152.6 km
Semi-major
6,524.7 km
B*
2.2008e-4
RAAN
88.2924°
Arg perigee
264.1548°
Mean anomaly
95.8444°
Rev number
31,469

§ Raw data

STARLINK-19221 46753U 20074Q   26179.20321030  .12923564  12549-4  22008-3 0  99962 46753  53.0194  88.2924 0009282 264.1548  95.8444 16.47266339314697

JSON: /api/v1/satellites/46753 · /tle

For live sub-satellite position, see the globe view (requires WebGL).

§ Visibility from observer

Set your observer location to see the next 7 days of passes ≥ 10°. The values pass through the URL so the page stays shareable.

No JS? Fill the form by hand. The geolocation button needs JavaScript.